Hourly Data Report for October 23, 2016

All times are specified in Local Standard Time (LST). Add 1 hour to adjust for Daylight Saving Time where and when it is observed.

SAINT JOHN A
NEW BRUNSWICK

45°18'58.000" N
65°53'24.000" W
108.80 m
8104901
71609
YSJ

Download Data

Hourly Data (October 2016)
Hourly Data Report for October 23, 2016
Temp Definition
°C
Dew Point Temp Definition
°C
Rel Hum Definition
%
Wind Dir Definition
10's deg

Wind Spd Definition
km/h
Visibility Definition
km
Stn Press Definition
kPa
Hmdx Definition


Wind Chill Definition


Weather Definition


TIME
00:00 Legend Double Dagger 12.5 11.3 92 19 35 9.7 97.82     Fog
01:00 Legend Double Dagger 12.1 10.9 92 19 41 9.7 97.80     Fog
02:00 Legend Double Dagger 11.7 9.3 85 19 44 16.1 97.82     Cloudy
03:00 Legend Double Dagger 10.3 10.0 98 20 40 4.8 97.79     Fog
04:00 Legend Double Dagger 9.4 9.0 97 21 43 4.8 97.81     Rain,Fog
05:00 Legend Double Dagger 8.9 7.5 91 20 43 4.8 97.82     Rain,Fog
06:00 Legend Double Dagger 8.8 5.6 80 21 45 16.1 97.83     Rain
07:00 Legend Double Dagger 7.9 6.5 91 21 36 8.1 97.85     Rain,Fog
08:00 Legend Double Dagger 7.5 6.1 91 21 42 9.7 97.88     Rain,Fog
09:00 Legend Double Dagger 8.2 5.2 81 21 37 12.9 97.89     Rain
10:00 Legend Double Dagger 6.9 6.0 94 24 20 12.9 97.92     Rain
11:00 Legend Double Dagger 6.4 4.6 88 24 27 9.7 97.98     Rain,Fog
12:00 Legend Double Dagger 6.7 2.4 74 24 35 16.1 98.00     LegendNANA
13:00 Legend Double Dagger 7.4 1.9 68 23 24 19.3 98.03     LegendNANA
14:00 Legend Double Dagger 7.3 1.4 66 24 21 24.1 98.06     Cloudy
15:00 Legend Double Dagger 7.2 1.5 67 25 23 24.1 98.13     LegendNANA
16:00 Legend Double Dagger 6.5 1.2 69 24 16 24.1 98.17     LegendNANA
17:00 Legend Double Dagger 6.4 1.9 73 26 9 24.1 98.23     Cloudy
18:00 Legend Double Dagger 5.3 1.1 74 24 19 24.1 98.32     LegendNANA
19:00 Legend Double Dagger 6.0 0.4 67 25 30 24.1 98.41     LegendNANA
20:00 Legend Double Dagger 6.0 -0.3 64 25 29 24.1 98.44     Cloudy
21:00 Legend Double Dagger 5.6 -0.5 65 25 22 24.1 98.47     LegendNANA
22:00 Legend Double Dagger 5.6 -0.2 66 24 23 24.1 98.48     LegendNANA
23:00 Legend Double Dagger 5.6 0.2 68 25 32 24.1 98.54     Mostly Cloudy

Notes on Data Quality.

Legend

  • E = Estimated
  • M = Missing
  • NA = Not Available
  • ‡ = Partner data that is not subject to review by the National Climate Archives
Date modified: